User: anonymous
Location: Unspecified
(0.0000°N, 0.0000°E)
Time: 06:48:26
(UTC+00:00)
Language:

COSMOS 2468 - Orbit

View from above orbital plane
View from above orbital plane
View from above satellite
View from above satellite

Ground track
Ground track

The orbit data is extracted from the following two-line orbital elements,

1 37154U 10043C   14231.73759715  .00000001  00000-0 -60570-4 0  2271
2 37154 082.4589 246.0422 0015070 031.5054 328.6922 12.42887425179045
Epoch (UTC): 19 August 2014 17:42:08
Eccentricity: 0.0015070
inclination: 82.4589°
perigee height: 1482 km
apogee height: 1506 km
right ascension of ascending node: 246.0422°
argument of perigee: 31.5054°
revolutions per day: 12.42887425
mean anomaly at epoch: 328.6922°
orbit number at epoch: 17904

The dashed part of the orbit path shows where the satellite is in the earth's shadow,  

DLR